EUTELSAT HOTBIRD 13G

Last updated on Mon Oct 14 2024 00:02:41 GMT+0000 (Coordinated Universal Time)

1 54225U 22146A 24287.26613859 .00000086 00000+0 00000+0 0 9998 2 54225 0.0530 246.7489 0002050 290.3859 314.0225 1.00272179 1356
UTC large
Height (km)
Speed (km/s)
/
Latitude / Longitude
Inclination (degrees)
Orbital Period (minutes)
Azimuth
Elevation
Range (km)
Doppler Factor

Next 0 passes for location: London (51.5072 / 0.1276)

Sorry there are no passes over London.